Weather History for Avalon, CA

Change the Weather History Date:

Thursday, February 14, 2013

  Actual Average Record
Temperature  
Mean Temperature 60 °F -  
Max Temperature 69 °F 54 °F 79 °F (2014)
Min Temperature 51 °F 47 °F 39 °F (2001)
Degree Days  
Heating Degree Days 5    
Growing Degree Days 10 (Base 50)    
Moisture  
Dew Point 33 °F    
Average Humidity 37    
Maximum Humidity 56    
Minimum Humidity 19    
Precipitation  
Precipitation 0.00 in - - ()
Sea Level Pressure  
Sea Level Pressure 30.13 in    
Wind  
Wind Speed 4 mph (NNW)    
Max Wind Speed 10 mph    
Max Gust Speed -    
Visibility 10 miles    
Events      
Averages and records for this station are not official NWS values.
T = Trace of Precipitation, MM = Missing Value Source: NWS Daily Summary

Daily Weather History Graph

Daily Weather History Graph

Search for Another Location

Airport:

Trip Planner

Search our weather history database for the weather conditions in past years. The results will help you decide how hot, cold, wet, or windy it might be!

Date:

Astronomy

Feb. 14, 2013 Rise Set
Actual Time 6:38 AM PST 5:37 PM PST
Civil Twilight 6:12 AM PST 6:03 PM PST
Nautical Twilight 5:43 AM PST 6:32 PM PST
Astronomical Twilight 5:14 AM PST 7:01 PM PST
Moon 8:59 AM PST (2/14) 10:26 PM PST (2/14)
Length of Visible Light 11h 50m
Length of Day
10h 59m
Waxing Crescent, 22% of the Moon is Illuminated
Feb 14
Waxing Crescent
Feb 17
First Quarter
Feb 25
Full
Mar 4
Last Quarter
Mar 11
New

Hourly Weather History & Observations

Time (PST) Temp. Dew Point Humidity Pressure Visibility Wind Dir Wind Speed Gust Speed Precip Events Conditions
1:51 AM 52.0 °F 28.9 °F 41% 30.14 in 10.0 mi North 4.6 mph - N/A   Clear
4:51 AM 53.1 °F 27.0 °F 37% 30.14 in 10.0 mi WSW 4.6 mph - N/A   Clear
5:51 AM 51.1 °F 34.0 °F 52% 30.13 in 10.0 mi NNW 4.6 mph - N/A   Clear
6:51 AM 51.1 °F 32.0 °F 48% 30.14 in 10.0 mi NNW 6.9 mph - N/A   Clear
7:51 AM 57.0 °F 30.9 °F 37% 30.14 in 10.0 mi Calm Calm - N/A   Clear
8:51 AM 60.1 °F 33.1 °F 36% 30.17 in 10.0 mi Calm Calm - N/A   Clear
9:51 AM 60.1 °F 41.0 °F 49% 30.18 in 10.0 mi Calm Calm - N/A   Clear
10:51 AM 57.0 °F 39.9 °F 53% 30.17 in 10.0 mi North 4.6 mph - N/A   Clear
11:51 AM 62.1 °F 46.0 °F 56% 30.14 in 10.0 mi NNE 6.9 mph - N/A   Clear
12:51 PM 63.0 °F 45.0 °F 52% 30.11 in 10.0 mi WNW 3.5 mph - N/A   Clear
1:51 PM 66.9 °F 36.0 °F 32% 30.08 in 10.0 mi Variable 4.6 mph - N/A   Clear
2:51 PM 69.1 °F 34.0 °F 27% 30.07 in 10.0 mi Calm Calm - N/A   Clear
3:51 PM 66.0 °F 45.0 °F 47% 30.09 in 10.0 mi WSW 3.5 mph - N/A   Clear
4:51 PM 64.0 °F 43.0 °F 46% 30.08 in 10.0 mi Calm Calm - N/A   Clear
5:51 PM 64.9 °F 27.0 °F 24% 30.10 in 10.0 mi WSW 8.1 mph - N/A   Clear
6:51 PM 66.0 °F 23.0 °F 20% 30.11 in 10.0 mi WSW 4.6 mph - N/A   Clear
7:51 PM 64.9 °F 21.9 °F 19% 30.12 in 10.0 mi WNW 3.5 mph - N/A   Clear
8:51 PM 64.0 °F 23.0 °F 21% 30.13 in 10.0 mi North 4.6 mph - N/A   Clear
9:51 PM 62.1 °F 25.0 °F 24% 30.15 in 10.0 mi ENE 5.8 mph - N/A   Clear
10:51 PM 59.0 °F 27.0 °F 29% 30.16 in 10.0 mi NNE 4.6 mph - N/A   Clear
11:51 PM 63.0 °F 25.0 °F 24% 30.14 in 10.0 mi ENE 10.4 mph - N/A   Clear